Change the Weather History Date:

Sunday, September 8, 2013

  Actual Average Record
Temperature  
Mean Temperature 60 °F 55 °F  
Max Temperature 73 °F 72 °F 90 °F (1979)
Min Temperature 47 °F 38 °F 26 °F (1960)
Degree Days  
Heating Degree Days 5 10  
Month to date heating degree days 6 71  
Since 1 July heating degree days 73 299  
Cooling Degree Days 0 0  
Month to date cooling degree days 8 0  
Year to date cooling degree days 104 79  
Growing Degree Days 10 (Base 50)    
Moisture  
Dew Point 46 °F    
Average Humidity 66    
Maximum Humidity 100    
Minimum Humidity 31    
Precipitation  
Precipitation T in 0.04 in 0.79 in (1991)
Month to date precipitation 0.18 0.31  
Year to date precipitation 7.47 10.19  
Snow  
Snow 0.00 in - - ()
Snow Depth -    
Sea Level Pressure  
Sea Level Pressure 29.99 in    
Wind  
Wind Speed 6 mph (NW)    
Max Wind Speed 21 mph    
Max Gust Speed 26 mph    
Visibility 10 miles    
Events      
T = Trace of Precipitation, MM = Missing Value Source: NWS Daily Summary

Daily Weather History Graph

Daily Weather History Graph

Search for Another Location

Airport or City:

Trip Planner

Search our weather history database for the weather conditions in past years. The results will help you decide how hot, cold, wet, or windy it might be!

Date:

Astronomy

Sep. 08, 2013 Rise Set
Actual Time 6:59 AM MDT 7:54 PM MDT
Civil Twilight 6:29 AM MDT 8:24 PM MDT
Nautical Twilight 5:53 AM MDT 9:00 PM MDT
Astronomical Twilight 5:15 AM MDT 9:38 PM MDT
Moon 10:35 AM MDT (9/8) 9:17 PM MDT (9/8)
Length of Visible Light 13h 55m
Length of Day
12h 54m
Waxing Crescent, 11% of the Moon is Illuminated
Sep 8
Waxing Crescent
Sep 12
First Quarter
Sep 19
Full
Sep 26
Last Quarter
Oct 4
New

Hourly Weather History & Observations

Time (MDT) Temp. Dew Point Humidity Pressure Visibility Wind Dir Wind Speed Gust Speed Precip Events Conditions
12:53 AM 51.1 °F 48.9 °F 92% 29.99 in 10.0 mi SE 5.8 mph - N/A   Clear
1:53 AM 51.1 °F 48.9 °F 92% 29.99 in 10.0 mi Calm Calm - N/A   Clear
2:53 AM 48.9 °F 48.0 °F 97% 30.00 in 10.0 mi ESE 3.5 mph - N/A   Clear
3:53 AM 48.0 °F 46.9 °F 96% 30.00 in 10.0 mi Calm Calm - N/A   Clear
4:18 AM 48.2 °F 46.4 °F 93% 30.14 in 10.0 mi Calm Calm - N/A   Scattered Clouds
4:28 AM 48.2 °F 46.4 °F 93% 30.14 in 10.0 mi East 4.6 mph - N/A   Mostly Cloudy
4:53 AM 50.0 °F 48.0 °F 93% 30.00 in 10.0 mi Calm Calm - N/A   Overcast
5:42 AM 51.8 °F 48.2 °F 88% 30.14 in 10.0 mi Calm Calm - N/A   Overcast
5:53 AM 51.1 °F 48.9 °F 92% 30.01 in 10.0 mi Calm Calm - N/A   Overcast
6:53 AM 52.0 °F 50.0 °F 93% 30.02 in 10.0 mi Calm Calm - N/A   Overcast
7:00 AM 51.8 °F 50.0 °F 94% 30.14 in 10.0 mi Calm Calm - N/A   Overcast
7:53 AM 53.1 °F 50.0 °F 89% 30.01 in 10.0 mi Calm Calm - N/A   Overcast
8:53 AM 55.0 °F 51.1 °F 86% 30.01 in 10.0 mi Calm Calm - N/A   Overcast
9:53 AM 55.9 °F 51.1 °F 84% 30.01 in 10.0 mi NE 3.5 mph - N/A   Overcast
10:32 AM 57.2 °F 51.8 °F 82% 30.11 in 10.0 mi Calm Calm - N/A   Partly Cloudy
10:53 AM 61.0 °F 53.1 °F 75% 29.98 in 10.0 mi Calm Calm - N/A   Clear
11:53 AM 68.0 °F 45.0 °F 43% 29.94 in 10.0 mi SE 3.5 mph - N/A   Clear
12:53 PM 70.0 °F 37.0 °F 30% 29.92 in 10.0 mi WSW 10.4 mph 18.4 mph N/A   Mostly Cloudy
1:53 PM 70.0 °F 39.9 °F 33% 29.91 in 10.0 mi South 10.4 mph - 0.00 in   Mostly Cloudy
2:53 PM 72.0 °F 41.0 °F 33% 29.88 in 10.0 mi WNW 12.7 mph 23.0 mph N/A   Mostly Cloudy
3:03 PM 71.6 °F 39.2 °F 31% 30.02 in 10.0 mi WNW 15.0 mph 24.2 mph N/A   Mostly Cloudy
3:53 PM 68.0 °F 43.0 °F 40% 29.90 in 10.0 mi WNW 15.0 mph 25.3 mph N/A   Mostly Cloudy
4:53 PM 68.0 °F 44.1 °F 42% 29.89 in 10.0 mi WNW 13.8 mph - N/A   Overcast
5:53 PM 64.0 °F 43.0 °F 46% 29.91 in 10.0 mi NW 13.8 mph - N/A   Overcast
6:53 PM 63.0 °F 43.0 °F 48% 29.91 in 10.0 mi NW 13.8 mph 20.7 mph N/A   Overcast
7:53 PM 62.1 °F 42.1 °F 48% 29.91 in 10.0 mi NNW 9.2 mph - N/A   Overcast
8:53 PM 57.9 °F 43.0 °F 58% 29.95 in 10.0 mi NW 13.8 mph - N/A   Partly Cloudy
9:53 PM 54.0 °F 42.1 °F 64% 29.98 in 10.0 mi NW 5.8 mph - N/A   Clear
10:53 PM 54.0 °F 41.0 °F 62% 29.97 in 10.0 mi NW 9.2 mph - N/A   Clear
11:53 PM 51.1 °F 39.9 °F 66% 29.97 in 10.0 mi North 5.8 mph - N/A   Clear